Jackson, MI

3:53 AM EST on November 21, 2019 (GMT -0500)
Jackson County-Reynolds

Weather History for KJXN - May, 2019

Change the Weather History Date:

Tuesday, May 14, 2019

  Actual Average Record
Temperature  
Mean Temperature 51 °F 57 °F  
Max Temperature 68 °F 69 °F 87 °F (1962)
Min Temperature 33 °F 46 °F 32 °F (1973)
Degree Days  
Heating Degree Days 14 9  
Month to date heating degree days 173 147  
Since 1 July heating degree days 6570 6493  
Cooling Degree Days 0 1  
Month to date cooling degree days 0 7  
Year to date cooling degree days 0 13  
Moisture  
Dew Point 36 °F    
Average Humidity 62    
Maximum Humidity 100    
Minimum Humidity 24    
Precipitation  
Precipitation 0.00 in 0.11 in 0.88 in (1972)
Month to date precipitation 1.17 1.43  
Year to date precipitation 9.41 8.72  
Sea Level Pressure  
Sea Level Pressure 30.00 in    
Wind  
Wind Speed 5 mph (WSW)    
Max Wind Speed 14 mph    
Max Gust Speed 20 mph    
Visibility 8 miles    
Events      
T = Trace of Precipitation, MM = Missing Value Source: NWS Daily Summary

Daily Weather History Graph

Daily Weather History Graph

Search for Another Location

Airport or City:

Astronomy

May. 14, 2019 Rise Set
Actual Time 6:17 AM EDT 8:51 PM EDT
Civil Twilight 5:45 AM EDT 9:23 PM EDT
Nautical Twilight 5:06 AM EDT 10:03 PM EDT
Astronomical Twilight 4:21 AM EDT 10:48 PM EDT
Moon 4:04 PM EDT (5/14) 4:18 AM EDT (5/14)
Length of Visible Light 15h 37m
Length of Day
14h 33m
Waxing Gibbous, 79% of the Moon is Illuminated
May 14
Waxing Gibbous
May 18
Full
May 26
Last Quarter
Jun 3
New
Jun 10
First Quarter

Hourly Weather History & Observations

Time (EDT) Temp. Windchill Dew Point Humidity Pressure Visibility Wind Dir Wind Speed Gust Speed Precip Events Conditions
12:56 AM 37.0 °F 33.3 °F 37.0 °F 100% 29.98 in 9.0 mi SW 4.6 mph - N/A   Clear
1:56 AM 37.0 °F - 37.0 °F 100% 29.99 in 10.0 mi Calm Calm - N/A   Clear
2:56 AM 37.0 °F 33.3 °F 36.0 °F 96% 29.98 in 9.0 mi SW 4.6 mph - N/A   Clear
3:37 AM 36.0 °F - 35.1 °F 97% 29.97 in 1.8 mi Calm Calm - N/A   Clear
3:48 AM 35.1 °F 32.2 °F 35.1 °F 100% 29.97 in 3.0 mi SW 3.5 mph - N/A   Clear
3:56 AM 35.1 °F 32.2 °F 35.1 °F 100% 29.99 in 5.0 mi SW 3.5 mph - N/A   Clear
4:56 AM 34.0 °F 29.8 °F 33.1 °F 96% 30.00 in 6.0 mi SW 4.6 mph - N/A   Clear
5:08 AM 34.0 °F 29.8 °F 34.0 °F 100% 29.97 in 2.5 mi SW 4.6 mph - N/A   Clear
5:15 AM 33.1 °F 28.7 °F 33.1 °F 100% 29.98 in 7.0 mi SW 4.6 mph - N/A   Clear
5:56 AM 34.0 °F 31.0 °F 34.0 °F 100% 30.01 in 7.0 mi SW 3.5 mph - N/A   Clear
6:56 AM 34.0 °F 29.8 °F 34.0 °F 100% 30.04 in 8.0 mi SW 4.6 mph - N/A   Clear
7:56 AM 42.1 °F - 39.0 °F 89% 30.04 in 10.0 mi Calm Calm - N/A   Clear
8:56 AM 48.0 °F - 39.0 °F 71% 30.05 in 10.0 mi WNW 4.6 mph - N/A   Clear
9:56 AM 53.1 °F - 39.0 °F 59% 30.05 in 10.0 mi West 4.6 mph - N/A   Clear
10:56 AM 59.0 °F - 37.0 °F 44% 30.05 in 10.0 mi Variable 5.8 mph - N/A   Clear
11:56 AM 62.1 °F - 35.1 °F 37% 30.04 in 10.0 mi NW 6.9 mph - N/A   Clear
12:56 PM 63.0 °F - 34.0 °F 34% 30.04 in 10.0 mi NW 9.2 mph - N/A   Clear
1:56 PM 64.9 °F - 33.1 °F 31% 30.02 in 10.0 mi NW 9.2 mph - N/A   Clear
2:56 PM 64.9 °F - 32.0 °F 29% 30.02 in 10.0 mi Variable 6.9 mph - N/A   Clear
3:56 PM 66.9 °F - 34.0 °F 30% 30.00 in 10.0 mi WSW 12.7 mph 17.3 mph N/A   Clear
4:56 PM 68.0 °F - 34.0 °F 28% 29.99 in 10.0 mi WNW 10.4 mph 16.1 mph N/A   Partly Cloudy
5:56 PM 68.0 °F - 30.9 °F 25% 29.98 in 10.0 mi NW 6.9 mph - N/A   Clear
6:56 PM 66.0 °F - 32.0 °F 28% 29.98 in 10.0 mi Calm Calm - N/A   Clear
7:56 PM 64.0 °F - 35.1 °F 34% 29.97 in 10.0 mi West 5.8 mph - N/A   Clear
8:56 PM 59.0 °F - 37.0 °F 44% 29.98 in 10.0 mi WSW 3.5 mph - N/A   Clear
9:56 PM 52.0 °F - 41.0 °F 66% 29.98 in 10.0 mi SW 3.5 mph - N/A   Clear
10:56 PM 46.9 °F - 41.0 °F 80% 30.00 in 10.0 mi SW 4.6 mph - N/A   Clear
11:56 PM 48.0 °F - 41.0 °F 77% 29.99 in 10.0 mi Calm Calm - N/A   Clear